This is the latest recevied weather packets stored in our database for station/object WB5CFT. If no packets are shown the sender has not sent any weather packets the latest 1 day(s).
| Time | Temp. | Humidity | Pressure | Rain* | Wind** | Luminosity | Snow |
|---|---|---|---|---|---|---|---|
| 1778016457 | 27.22° C | 30% | 1010.2 hPa | 0 mm | 2.24 m/s, 229° | 768 W/m² | - |
| 1778016155 | 26.67° C | 30% | 1010.2 hPa | 0 mm | 4.47 m/s, 262° | 929 W/m² | - |
| 1778015852 | 26.67° C | 30% | 1010.3 hPa | 0 mm | 4.02 m/s, 306° | 348 W/m² | - |
| 1778015549 | 26.11° C | 31% | 1010.2 hPa | 0 mm | 2.24 m/s, 267° | 285 W/m² | - |
| 1778015245 | 26.11° C | 31% | 1010.4 hPa | 0 mm | 2.68 m/s, 251° | 234 W/m² | - |
| 1778014942 | 26.11° C | 31% | 1010.5 hPa | 0 mm | 2.24 m/s, 271° | 245 W/m² | - |
| 1778014640 | 25.56° C | 31% | 1010.9 hPa | 0 mm | 2.68 m/s, 272° | 180 W/m² | - |
| 1778014338 | 25.56° C | 30% | 1010.7 hPa | 0 mm | 4.47 m/s, 236° | 173 W/m² | - |
| 1778014034 | 25.56° C | 31% | 1010.9 hPa | 0 mm | 0 m/s | 159 W/m² | - |
| 1778013732 | 25.56° C | 31% | 1011.2 hPa | 0 mm | 2.68 m/s, 262° | 156 W/m² | - |
| 1778013429 | 25.56° C | 32% | 1011 hPa | 0 mm | 0.45 m/s, 257° | 153 W/m² | - |
| 1778013126 | 25° C | 31% | 1011 hPa | 0 mm | 3.58 m/s, 244° | 154 W/m² | - |
| 1778012821 | 25° C | 31% | 1011.3 hPa | 0 mm | 4.02 m/s, 274° | 161 W/m² | - |
| 1778012518 | 25° C | 32% | 1011.3 hPa | 0 mm | 1.79 m/s, 262° | 161 W/m² | - |
| 1778012214 | 24.44° C | 33% | 1011.3 hPa | 0 mm | 0 m/s | 148 W/m² | - |
| 1778011913 | 24.44° C | 33% | 1011.3 hPa | 0 mm | 0 m/s | 139 W/m² | - |
| 1778011611 | 24.44° C | 32% | 1011.2 hPa | 0 mm | 0 m/s | 138 W/m² | - |
| 1778011307 | 24.44° C | 31% | 1011.2 hPa | 0 mm | 0 m/s | 141 W/m² | - |
| 1778011003 | 24.44° C | 33% | 1011.3 hPa | 0 mm | 0 m/s | 142 W/m² | - |
| 1778010700 | 23.89° C | 32% | 1011.2 hPa | 0 mm | 0 m/s | 117 W/m² | - |
| 1778010397 | 23.89° C | 33% | 1011.3 hPa | 0 mm | 0 m/s | 94 W/m² | - |
| 1778010093 | 23.89° C | 31% | 1011.3 hPa | 0 mm | 0.45 m/s, 215° | 101 W/m² | - |
| 1778009790 | 23.89° C | 31% | 1011.3 hPa | 0 mm | 0 m/s | 103 W/m² | - |
| 1778009487 | 23.89° C | 31% | 1011.3 hPa | 0 mm | 0 m/s | 96 W/m² | - |
| 1778009186 | 23.89° C | 31% | 1011.2 hPa | 0 mm | 0.45 m/s, 247° | 79 W/m² | - |
* Rain latest hour (hover to see other rain measurements)
** Current wind speed in m/s (hover to see current wind gust speed)